Index of /pmb/codes/nwprod/gfdl.v6.0.3/fix

[ICO]NameLast modifiedSizeDescription

[DIR]Parent Directory  -  
[   ]gfdl_Hdeepgsu.eastatl10-Sep-2013 01:27 490K 
[   ]gfdl_Hdeepgsu.united10-Sep-2013 01:27 793K 
[   ]gfdl_albedo.fall10-Sep-2013 01:27 8.9M 
[   ]gfdl_albedo.spring10-Sep-2013 01:27 8.9M 
[   ]gfdl_albedo.summer10-Sep-2013 01:27 8.9M 
[   ]gfdl_albedo.winter10-Sep-2013 01:27 8.9M 
[   ]gfdl_datainp110-Sep-2013 01:27 51  
[   ]gfdl_datainp1.l4210-Sep-2013 01:27 51  
[   ]gfdl_datainp210-Sep-2013 01:27 118  
[TXT]gfdl_disclaimer.txt10-Sep-2013 01:27 208  
[   ]gfdl_fildef.afos10-Sep-2013 01:27 118  
[   ]gfdl_fildef.sdm10-Sep-2013 01:27 128  
[   ]gfdl_fort.710-Sep-2013 01:27 48K 
[   ]gfdl_fort.7.l4210-Sep-2013 01:27 212K 
[   ]gfdl_gdem.00.ascii10-Sep-2013 01:27 6.6M 
[   ]gfdl_gdem.01.ascii10-Sep-2013 01:27 6.6M 
[   ]gfdl_gdem.02.ascii10-Sep-2013 01:27 6.6M 
[   ]gfdl_gdem.03.ascii10-Sep-2013 01:27 6.6M 
[   ]gfdl_gdem.04.ascii10-Sep-2013 01:27 6.6M 
[   ]gfdl_gdem.05.ascii10-Sep-2013 01:27 6.6M 
[   ]gfdl_gdem.06.ascii10-Sep-2013 01:27 6.6M 
[   ]gfdl_gdem.07.ascii10-Sep-2013 01:27 6.6M 
[   ]gfdl_gdem.08.ascii10-Sep-2013 01:27 6.6M 
[   ]gfdl_gdem.09.ascii10-Sep-2013 01:27 6.6M 
[   ]gfdl_gdem.10.ascii10-Sep-2013 01:27 6.6M 
[   ]gfdl_gdem.11.ascii10-Sep-2013 01:27 6.6M 
[   ]gfdl_gdem.12.ascii10-Sep-2013 01:27 6.6M 
[   ]gfdl_gdem.13.ascii10-Sep-2013 01:27 6.6M 
[   ]gfdl_height10-Sep-2013 01:27 8.9M 
[   ]gfdl_huranal.data10-Sep-2013 01:27 118  
[   ]gfdl_initdata.eastatl.0110-Sep-2013 01:27 8.9M 
[   ]gfdl_initdata.eastatl.0210-Sep-2013 01:27 8.9M 
[   ]gfdl_initdata.eastatl.0310-Sep-2013 01:27 8.9M 
[   ]gfdl_initdata.eastatl.0410-Sep-2013 01:27 8.9M 
[   ]gfdl_initdata.eastatl.0510-Sep-2013 01:27 8.9M 
[   ]gfdl_initdata.eastatl.0610-Sep-2013 01:27 8.9M 
[   ]gfdl_initdata.eastatl.0710-Sep-2013 01:27 8.9M 
[   ]gfdl_initdata.eastatl.0810-Sep-2013 01:27 8.9M 
[   ]gfdl_initdata.eastatl.0910-Sep-2013 01:27 8.9M 
[   ]gfdl_initdata.eastatl.1010-Sep-2013 01:27 8.9M 
[   ]gfdl_initdata.eastatl.1110-Sep-2013 01:27 8.9M 
[   ]gfdl_initdata.eastatl.1210-Sep-2013 01:27 8.9M 
[   ]gfdl_initdata.gdem.united.0110-Sep-2013 01:27 14M 
[   ]gfdl_initdata.gdem.united.0210-Sep-2013 01:27 14M 
[   ]gfdl_initdata.gdem.united.0310-Sep-2013 01:27 14M 
[   ]gfdl_initdata.gdem.united.0410-Sep-2013 01:27 14M 
[   ]gfdl_initdata.gdem.united.0510-Sep-2013 01:27 14M 
[   ]gfdl_initdata.gdem.united.0610-Sep-2013 01:27 14M 
[   ]gfdl_initdata.gdem.united.0710-Sep-2013 01:27 14M 
[   ]gfdl_initdata.gdem.united.0810-Sep-2013 01:27 14M 
[   ]gfdl_initdata.gdem.united.0910-Sep-2013 01:27 14M 
[   ]gfdl_initdata.gdem.united.1010-Sep-2013 01:28 14M 
[   ]gfdl_initdata.gdem.united.1110-Sep-2013 01:28 14M 
[   ]gfdl_initdata.gdem.united.1210-Sep-2013 01:28 14M 
[   ]gfdl_initdata.gdem3.united.0510-Sep-2013 01:28 14M 
[   ]gfdl_initdata.gdem3.united.0610-Sep-2013 01:28 14M 
[   ]gfdl_initdata.gdem3.united.0710-Sep-2013 01:28 14M 
[   ]gfdl_initdata.gdem3.united.0810-Sep-2013 01:28 14M 
[   ]gfdl_initdata.gdem3.united.0910-Sep-2013 01:28 14M 
[   ]gfdl_initdata.gdem3.united.1010-Sep-2013 01:28 14M 
[   ]gfdl_initdata.gdem3.united.1110-Sep-2013 01:28 14M 
[   ]gfdl_initdata.gdem3.united.1210-Sep-2013 01:28 14M 
[   ]gfdl_initdata.levit.united.0510-Sep-2013 01:28 14M 
[   ]gfdl_initdata.levit.united.0610-Sep-2013 01:28 14M 
[   ]gfdl_initdata.levit.united.0710-Sep-2013 01:28 14M 
[   ]gfdl_initdata.levit.united.0810-Sep-2013 01:28 14M 
[   ]gfdl_initdata.levit.united.0910-Sep-2013 01:28 14M 
[   ]gfdl_initdata.levit.united.1010-Sep-2013 01:28 14M 
[   ]gfdl_initdata.levit.united.1110-Sep-2013 01:28 14M 
[   ]gfdl_initdata.levit.united.1210-Sep-2013 01:28 14M 
[   ]gfdl_initdata.united.0110-Sep-2013 01:28 14M 
[   ]gfdl_initdata.united.0210-Sep-2013 01:28 14M 
[   ]gfdl_initdata.united.0310-Sep-2013 01:28 14M 
[   ]gfdl_initdata.united.0410-Sep-2013 01:28 14M 
[   ]gfdl_initdata.united.0510-Sep-2013 01:28 14M 
[   ]gfdl_initdata.united.0610-Sep-2013 01:28 14M 
[   ]gfdl_initdata.united.0710-Sep-2013 01:28 14M 
[   ]gfdl_initdata.united.0810-Sep-2013 01:28 14M 
[   ]gfdl_initdata.united.0910-Sep-2013 01:28 14M 
[   ]gfdl_initdata.united.1010-Sep-2013 01:28 14M 
[   ]gfdl_initdata.united.1110-Sep-2013 01:28 14M 
[   ]gfdl_initdata.united.1210-Sep-2013 01:28 14M 
[   ]gfdl_limit_2nest_dat_x.110-Sep-2013 01:28 259  
[   ]gfdl_limit_2nest_dat_x.510-Sep-2013 01:28 703  
[   ]gfdl_limit_2nest_dat_x.610-Sep-2013 01:28 814  
[   ]gfdl_limit_2nest_dat_y.110-Sep-2013 01:28 111  
[   ]gfdl_limit_2nest_dat_y.610-Sep-2013 01:28 666  
[   ]gfdl_limit_2nest_dat_y.1210-Sep-2013 01:28 1.4K 
[   ]gfdl_limit_2nest_dat_y.1510-Sep-2013 01:28 1.6K 
[   ]gfdl_limit_2nest_dat_y.1610-Sep-2013 01:28 1.7K 
[   ]gfdl_ocean_dat10-Sep-2013 01:28 26  
[   ]gfdl_ocean_readu.dat.0110-Sep-2013 01:28 26M 
[   ]gfdl_ocean_readu.dat.0210-Sep-2013 01:28 26M 
[   ]gfdl_ocean_readu.dat.0310-Sep-2013 01:28 26M 
[   ]gfdl_ocean_readu.dat.0410-Sep-2013 01:28 26M 
[   ]gfdl_ocean_readu.dat.0510-Sep-2013 01:28 26M 
[   ]gfdl_ocean_readu.dat.0610-Sep-2013 01:28 26M 
[   ]gfdl_ocean_readu.dat.0710-Sep-2013 01:28 26M 
[   ]gfdl_ocean_readu.dat.0810-Sep-2013 01:28 26M 
[   ]gfdl_ocean_readu.dat.0910-Sep-2013 01:28 26M 
[   ]gfdl_ocean_readu.dat.1010-Sep-2013 01:28 26M 
[   ]gfdl_ocean_readu.dat.1110-Sep-2013 01:28 26M 
[   ]gfdl_ocean_readu.dat.1210-Sep-2013 01:28 26M 
[   ]gfdl_ocean_spinup.BAYuf10-Sep-2013 01:28 3.4K 
[   ]gfdl_ocean_spinup.FSgsuf10-Sep-2013 01:28 2.4K 
[   ]gfdl_ocean_spinup.SGYREuf10-Sep-2013 01:28 30K 
[   ]gfdl_ocean_spinup_gdem3.dat.0110-Sep-2013 01:28 26M 
[   ]gfdl_ocean_spinup_gdem3.dat.0210-Sep-2013 01:28 26M 
[   ]gfdl_ocean_spinup_gdem3.dat.0310-Sep-2013 01:28 26M 
[   ]gfdl_ocean_spinup_gdem3.dat.0410-Sep-2013 01:28 26M 
[   ]gfdl_ocean_spinup_gdem3.dat.0510-Sep-2013 01:28 26M 
[   ]gfdl_ocean_spinup_gdem3.dat.0610-Sep-2013 01:28 26M 
[   ]gfdl_ocean_spinup_gdem3.dat.0710-Sep-2013 01:28 26M 
[   ]gfdl_ocean_spinup_gdem3.dat.0810-Sep-2013 01:28 26M 
[   ]gfdl_ocean_spinup_gdem3.dat.0910-Sep-2013 01:28 26M 
[   ]gfdl_ocean_spinup_gdem3.dat.1010-Sep-2013 01:28 26M 
[   ]gfdl_ocean_spinup_gdem3.dat.1110-Sep-2013 01:28 26M 
[   ]gfdl_ocean_spinup_gdem3.dat.1210-Sep-2013 01:28 26M 
[   ]gfdl_ocean_spinup_gspath.0110-Sep-2013 01:28 1.7K 
[   ]gfdl_ocean_spinup_gspath.0210-Sep-2013 01:28 1.7K 
[   ]gfdl_ocean_spinup_gspath.0310-Sep-2013 01:28 1.7K 
[   ]gfdl_ocean_spinup_gspath.0410-Sep-2013 01:28 1.7K 
[   ]gfdl_ocean_spinup_gspath.0510-Sep-2013 01:28 1.7K 
[   ]gfdl_ocean_spinup_gspath.0610-Sep-2013 01:28 1.7K 
[   ]gfdl_ocean_spinup_gspath.0710-Sep-2013 01:28 1.7K 
[   ]gfdl_ocean_spinup_gspath.0810-Sep-2013 01:28 1.7K 
[   ]gfdl_ocean_spinup_gspath.0910-Sep-2013 01:28 1.7K 
[   ]gfdl_ocean_spinup_gspath.1010-Sep-2013 01:28 1.7K 
[   ]gfdl_ocean_spinup_gspath.1110-Sep-2013 01:28 1.7K 
[   ]gfdl_ocean_spinup_gspath.1210-Sep-2013 01:28 1.7K 
[   ]gfdl_ocean_topo_and_mask.eastatl_extn10-Sep-2013 01:28 2.4M 
[   ]gfdl_ocean_topo_and_mask.united10-Sep-2013 01:28 1.2M 
[   ]gfdl_pctwat10-Sep-2013 01:28 8.9M 
[   ]gfdl_raw_temp_salin.eastpac.0410-Sep-2013 01:28 17M 
[   ]gfdl_raw_temp_salin.eastpac.0510-Sep-2013 01:28 17M 
[   ]gfdl_raw_temp_salin.eastpac.0610-Sep-2013 01:28 17M 
[   ]gfdl_raw_temp_salin.eastpac.0710-Sep-2013 01:28 17M 
[   ]gfdl_raw_temp_salin.eastpac.0810-Sep-2013 01:28 17M 
[   ]gfdl_raw_temp_salin.eastpac.0910-Sep-2013 01:28 17M 
[   ]gfdl_raw_temp_salin.eastpac.1010-Sep-2013 01:28 17M 
[   ]gfdl_raw_temp_salin.eastpac.1110-Sep-2013 01:28 17M 
[   ]gfdl_raw_temp_salin.eastpac.1210-Sep-2013 01:28 17M 
[TXT]gfdl_tracker_hgt_levs.txt10-Sep-2013 01:28 142  
[TXT]gfdl_tracker_leadtimes.txt10-Sep-2013 01:28 242  
[TXT]gfdl_tracker_tmp_levs.txt10-Sep-2013 01:28 60  
[   ]gfdl_wetness10-Sep-2013 01:28 8.9M 
[   ]gfdl_znot10-Sep-2013 01:28 8.9M 
[TXT]global_siglevel.l64.txt10-Sep-2013 01:28 572